Air Quality Table

TIMESTAMP NO2 SO2 O3 PM10 PM2.5 CO TEMP HUM WS WD NO
2021-11-29 21:00 1.33 µg/m3 0.18 µg/m3 86.82 µg/m3 N/A 8.87 µg/m3 0.16 mg/m3 11.3 °C 74.29 % 17.34 m/s 279.22 Deg -0.05 µg/m3
2021-11-29 20:00 1.36 µg/m3 0.23 µg/m3 87.12 µg/m3 N/A 10.45 µg/m3 0.15 mg/m3 11.95 °C 71.36 % 15.95 m/s 252.38 Deg -0.06 µg/m3
2021-11-29 19:00 1.22 µg/m3 0.23 µg/m3 88.35 µg/m3 N/A 14.36 µg/m3 0.15 mg/m3 13.65 °C 58.2 % 18.99 m/s 193.2 Deg -0.07 µg/m3
2021-11-29 18:00 1.12 µg/m3 0.22 µg/m3 88.63 µg/m3 N/A 9.4 µg/m3 0.15 mg/m3 14.31 °C 57.39 % 19.58 m/s 199.56 Deg -0.09 µg/m3
2021-11-29 17:00 1.33 µg/m3 0.21 µg/m3 82.65 µg/m3 N/A 9.55 µg/m3 0.16 mg/m3 14.03 °C 68.43 % 17.91 m/s 216.52 Deg -0.1 µg/m3
2021-11-29 16:00 1.34 µg/m3 0.19 µg/m3 83.48 µg/m3 N/A 9.96 µg/m3 0.15 mg/m3 13.34 °C 67.47 % 18.57 m/s 246.03 Deg -0.09 µg/m3
2021-11-29 15:00 1.04 µg/m3 0.39 µg/m3 83.47 µg/m3 N/A 6.79 µg/m3 0.15 mg/m3 14.68 °C 59.29 % 17.18 m/s 183.29 Deg -0.1 µg/m3
2021-11-29 14:00 1.03 µg/m3 0.25 µg/m3 84.07 µg/m3 N/A 6.72 µg/m3 0.15 mg/m3 14.49 °C 61.05 % 16.07 m/s 160.33 Deg -0.05 µg/m3
2021-11-29 13:00 0.98 µg/m3 0.2 µg/m3 82.48 µg/m3 N/A 5.48 µg/m3 0.15 mg/m3 14.47 °C 59.69 % 15.99 m/s 165.14 Deg -0.05 µg/m3
2021-11-29 12:00 0.99 µg/m3 0.18 µg/m3 81.08 µg/m3 N/A 3.04 µg/m3 0.15 mg/m3 14.45 °C 59.51 % 15.51 m/s 185.79 Deg -0.03 µg/m3
2021-11-29 11:00 1.09 µg/m3 0.24 µg/m3 80.76 µg/m3 N/A 2.7 µg/m3 0.15 mg/m3 14.31 °C 58 % 14.89 m/s 182.86 Deg -0.03 µg/m3
2021-11-29 10:00 1.15 µg/m3 0.23 µg/m3 79.65 µg/m3 N/A 3.25 µg/m3 0.15 mg/m3 14.07 °C 58.4 % 14.23 m/s 197.12 Deg -0.03 µg/m3
2021-11-29 09:00 1.26 µg/m3 0.28 µg/m3 80.15 µg/m3 N/A 1.83 µg/m3 0.15 mg/m3 13.87 °C 60.24 % 14.18 m/s 157.61 Deg -0.06 µg/m3
2021-11-29 08:00 1.2 µg/m3 0.31 µg/m3 80.3 µg/m3 N/A 2.72 µg/m3 0.15 mg/m3 13.75 °C 58.52 % 14.17 m/s 143.06 Deg -0.1 µg/m3
2021-11-29 07:00 1.1 µg/m3 0.24 µg/m3 81.31 µg/m3 N/A 3.62 µg/m3 0.15 mg/m3 13.72 °C 59.13 % 13.45 m/s 200.12 Deg -0.12 µg/m3
2021-11-29 06:00 0.99 µg/m3 0.18 µg/m3 81.38 µg/m3 N/A 4.71 µg/m3 0.15 mg/m3 13.72 °C 60.53 % 13.37 m/s 203.09 Deg -0.13 µg/m3
2021-11-29 05:00 1.08 µg/m3 0.2 µg/m3 79.77 µg/m3 N/A 5.09 µg/m3 0.12 mg/m3 13.57 °C 61.76 % 12.81 m/s 196.57 Deg -0.12 µg/m3
2021-11-29 04:00 0.85 µg/m3 0.17 µg/m3 80.94 µg/m3 N/A 5.43 µg/m3 0.17 mg/m3 13.64 °C 64.15 % 13.11 m/s 254.34 Deg -0.12 µg/m3
2021-11-29 03:00 0.82 µg/m3 0.2 µg/m3 81.48 µg/m3 N/A 3.46 µg/m3 0.17 mg/m3 13.64 °C 65.54 % 12.39 m/s 220.98 Deg -0.12 µg/m3
2021-11-29 02:00 1.1 µg/m3 0.19 µg/m3 83.76 µg/m3 N/A 3.71 µg/m3 0.17 mg/m3 14.03 °C 64.58 % 12.63 m/s 233.72 Deg -0.11 µg/m3
2021-11-29 01:00 0.95 µg/m3 0.13 µg/m3 83.67 µg/m3 N/A 3.1 µg/m3 0.17 mg/m3 13.65 °C 71.76 % 10.71 m/s 214.42 Deg -0.11 µg/m3
2021-11-29 00:00 1.31 µg/m3 0.17 µg/m3 82.38 µg/m3 N/A 2.43 µg/m3 0.18 mg/m3 12.6 °C 84.32 % 10.2 m/s 255.37 Deg -0.11 µg/m3
2021-11-28 23:00 1.2 µg/m3 0.13 µg/m3 84.67 µg/m3 N/A 3.37 µg/m3 0.17 mg/m3 13.79 °C 76.49 % 9.05 m/s 230.44 Deg -0.12 µg/m3
2021-11-28 22:00 1.13 µg/m3 0.16 µg/m3 85.67 µg/m3 N/A 3.44 µg/m3 0.17 mg/m3 14.77 °C 70.04 % 9.36 m/s 196.96 Deg -0.12 µg/m3
2021-11-28 21:00 1.36 µg/m3 0.18 µg/m3 86.77 µg/m3 N/A 3.86 µg/m3 0.17 mg/m3 14.8 °C 74.43 % 8.65 m/s 246.83 Deg -0.12 µg/m3
2021-11-28 20:00 0.92 µg/m3 0.21 µg/m3 91.27 µg/m3 N/A 4.57 µg/m3 0.16 mg/m3 15.69 °C 62.41 % 9.84 m/s 224.78 Deg -0.12 µg/m3
2021-11-28 19:00 0.8 µg/m3 0.18 µg/m3 93.19 µg/m3 N/A 4.07 µg/m3 0.16 mg/m3 15.64 °C 66.33 % 9.57 m/s 183.49 Deg -0.13 µg/m3
2021-11-28 18:00 0.69 µg/m3 0.17 µg/m3 94.02 µg/m3 N/A 4.2 µg/m3 0.16 mg/m3 15.34 °C 71.19 % 9.38 m/s 232.43 Deg -0.13 µg/m3
2021-11-28 17:00 0.41 µg/m3 0.14 µg/m3 91.6 µg/m3 N/A 2.81 µg/m3 0.15 mg/m3 14.04 °C 90.52 % 11.14 m/s 230.55 Deg -0.13 µg/m3
2021-11-28 16:00 0.35 µg/m3 0.16 µg/m3 89.38 µg/m3 N/A 3.22 µg/m3 0.15 mg/m3 13.99 °C 97.94 % 10.26 m/s 256.74 Deg -0.12 µg/m3
2021-11-28 15:00 0.35 µg/m3 0.2 µg/m3 89.19 µg/m3 N/A 1.73 µg/m3 0.15 mg/m3 14.69 °C 96.09 % 9.11 m/s 182.88 Deg -0.12 µg/m3
2021-11-28 14:00 0.39 µg/m3 0.15 µg/m3 89.37 µg/m3 N/A 4.54 µg/m3 0.15 mg/m3 15.25 °C 89.22 % 8.76 m/s 223.78 Deg -0.12 µg/m3
2021-11-28 13:00 0.28 µg/m3 0.23 µg/m3 90.51 µg/m3 N/A 4.12 µg/m3 0.15 mg/m3 15.74 °C 84.02 % 11.58 m/s 176.6 Deg -0.1 µg/m3
2021-11-28 12:00 0.4 µg/m3 0.22 µg/m3 91.07 µg/m3 N/A 3.51 µg/m3 0.15 mg/m3 14.71 °C 95.93 % 12.49 m/s 180.03 Deg -0.11 µg/m3
2021-11-28 11:00 0.48 µg/m3 0.23 µg/m3 92.44 µg/m3 N/A 2.82 µg/m3 0.16 mg/m3 13.64 °C 98.85 % 10.68 m/s 193.58 Deg -0.11 µg/m3
2021-11-28 10:00 0.53 µg/m3 0.2 µg/m3 95.64 µg/m3 N/A 3.28 µg/m3 0.15 mg/m3 12.97 °C 98.38 % 10.36 m/s 191.44 Deg -0.13 µg/m3
2021-11-28 09:00 0.64 µg/m3 0.2 µg/m3 97.27 µg/m3 N/A 1.83 µg/m3 0.15 mg/m3 12.21 °C 97.8 % 9.51 m/s 191.33 Deg -0.13 µg/m3
2021-11-28 08:00 0.65 µg/m3 0.27 µg/m3 97.83 µg/m3 N/A 2.08 µg/m3 0.15 mg/m3 12.33 °C 89.81 % 7.84 m/s 200.31 Deg -0.12 µg/m3
2021-11-28 07:00 0.73 µg/m3 0.35 µg/m3 95.82 µg/m3 N/A 2.74 µg/m3 0.15 mg/m3 14.27 °C 77.62 % 9.17 m/s 217.56 Deg -0.12 µg/m3
2021-11-28 06:00 0.91 µg/m3 0.32 µg/m3 93.25 µg/m3 N/A 6.31 µg/m3 0.15 mg/m3 15.47 °C 70.9 % 9.55 m/s 229.91 Deg -0.12 µg/m3
2021-11-28 05:00 1.49 µg/m3 0.68 µg/m3 90.19 µg/m3 N/A 5.98 µg/m3 0.13 mg/m3 16.84 °C 66.53 % 10.85 m/s 201.1 Deg -0.11 µg/m3
2021-11-28 04:00 0.97 µg/m3 1.35 µg/m3 92.97 µg/m3 N/A 6.51 µg/m3 0.17 mg/m3 17.21 °C 64 % 9.34 m/s 149.8 Deg -0.12 µg/m3
2021-11-28 03:00 0.88 µg/m3 1.14 µg/m3 94.23 µg/m3 N/A 6.82 µg/m3 0.17 mg/m3 17.25 °C 63.55 % 9.37 m/s 155.11 Deg -0.12 µg/m3
2021-11-28 02:00 0.81 µg/m3 0.87 µg/m3 95.42 µg/m3 N/A 6.35 µg/m3 0.17 mg/m3 17.39 °C 62.38 % 10.23 m/s 139.19 Deg -0.13 µg/m3
2021-11-28 01:00 0.84 µg/m3 0.41 µg/m3 96.7 µg/m3 N/A 7.04 µg/m3 0.16 mg/m3 17.67 °C 61.49 % 9.03 m/s 183.02 Deg -0.12 µg/m3
2021-11-28 00:00 1.15 µg/m3 0.82 µg/m3 94.95 µg/m3 N/A 7.18 µg/m3 0.16 mg/m3 17.82 °C 59.55 % 7.98 m/s 124.01 Deg -0.12 µg/m3
2021-11-27 23:00 1.29 µg/m3 0.61 µg/m3 95.32 µg/m3 N/A 6.49 µg/m3 0.17 mg/m3 18.02 °C 61.73 % 7.48 m/s 141.6 Deg -0.12 µg/m3
2021-11-27 22:00 1.22 µg/m3 0.81 µg/m3 98.82 µg/m3 N/A 7.12 µg/m3 0.17 mg/m3 18.11 °C 61.38 % 7.42 m/s 178.95 Deg -0.12 µg/m3
2021-11-27 21:00 1.13 µg/m3 0.54 µg/m3 96.42 µg/m3 N/A 7.17 µg/m3 0.17 mg/m3 17.48 °C 66.13 % 6.01 m/s 133.01 Deg -0.12 µg/m3
2021-11-27 20:00 0.99 µg/m3 0.52 µg/m3 95.85 µg/m3 N/A 6.66 µg/m3 0.17 mg/m3 17.21 °C 66.46 % 7.61 m/s 158.24 Deg -0.12 µg/m3
2021-11-27 19:00 0.9 µg/m3 0.32 µg/m3 95.42 µg/m3 N/A 6.28 µg/m3 0.16 mg/m3 17.27 °C 65.97 % 9.11 m/s 235.77 Deg -0.13 µg/m3
2021-11-27 18:00 0.77 µg/m3 0.22 µg/m3 95.23 µg/m3 N/A 6.44 µg/m3 0.16 mg/m3 17.15 °C 66.62 % 9.69 m/s 184.88 Deg -0.12 µg/m3
2021-11-27 17:00 0.61 µg/m3 0.23 µg/m3 93.19 µg/m3 N/A 4.99 µg/m3 0.16 mg/m3 17.07 °C 65.54 % 8.95 m/s 185.19 Deg -0.12 µg/m3
2021-11-27 16:00 0.56 µg/m3 0.28 µg/m3 91.28 µg/m3 N/A 4.68 µg/m3 0.16 mg/m3 17.03 °C 64.45 % 7.22 m/s 193.57 Deg -0.1 µg/m3
2021-11-27 15:00 1.53 µg/m3 0.28 µg/m3 91.17 µg/m3 N/A 4.91 µg/m3 0.16 mg/m3 17.04 °C 69.49 % 5.31 m/s 183.22 Deg 0.06 µg/m3
2021-11-27 14:00 0.7 µg/m3 0.29 µg/m3 91 µg/m3 N/A 4.05 µg/m3 0.16 mg/m3 16.83 °C 72.41 % 4 m/s 227.97 Deg -0.05 µg/m3
2021-11-27 13:00 0.59 µg/m3 0.25 µg/m3 90.54 µg/m3 N/A 5.94 µg/m3 0.16 mg/m3 16.17 °C 74.6 % 3.54 m/s 167.05 Deg -0.07 µg/m3
2021-11-27 12:00 0.59 µg/m3 0.24 µg/m3 89.87 µg/m3 N/A 8.07 µg/m3 0.16 mg/m3 14.45 °C 78.73 % 3.45 m/s 225.42 Deg -0.1 µg/m3
2021-11-27 11:00 0.54 µg/m3 0.22 µg/m3 89.38 µg/m3 N/A 7.91 µg/m3 0.16 mg/m3 13.26 °C 91.69 % 3.88 m/s 211.73 Deg -0.12 µg/m3
2021-11-27 10:00 0.53 µg/m3 0.18 µg/m3 90.4 µg/m3 N/A 6.96 µg/m3 0.16 mg/m3 12.92 °C 97.16 % 4.67 m/s 238.31 Deg -0.13 µg/m3
2021-11-27 09:00 0.64 µg/m3 0.23 µg/m3 92.16 µg/m3 N/A 8.12 µg/m3 0.16 mg/m3 14.4 °C 81.96 % 7.95 m/s 242.89 Deg -0.12 µg/m3
2021-11-27 08:00 0.68 µg/m3 0.31 µg/m3 91.74 µg/m3 N/A 11.61 µg/m3 0.16 mg/m3 18.03 °C 57.12 % 7.63 m/s 184.13 Deg -0.12 µg/m3
2021-11-27 07:00 0.77 µg/m3 0.69 µg/m3 87.09 µg/m3 N/A 10.44 µg/m3 0.17 mg/m3 18.54 °C 64.42 % 7.6 m/s 159.51 Deg -0.12 µg/m3
2021-11-27 06:00 0.88 µg/m3 0.46 µg/m3 88.25 µg/m3 N/A 7.07 µg/m3 0.17 mg/m3 18.42 °C 64.05 % 7.14 m/s 131.07 Deg -0.12 µg/m3
2021-11-27 05:00 0.83 µg/m3 0.35 µg/m3 89.4 µg/m3 N/A 5.81 µg/m3 0.14 mg/m3 18.08 °C 61.11 % 6.85 m/s 166.63 Deg -0.12 µg/m3
2021-11-27 04:00 1.06 µg/m3 0.42 µg/m3 88.98 µg/m3 N/A 5.5 µg/m3 0.19 mg/m3 17.93 °C 65.22 % 7.26 m/s 137.14 Deg -0.12 µg/m3
2021-11-27 03:00 1.2 µg/m3 1.06 µg/m3 87.28 µg/m3 N/A 5.62 µg/m3 0.19 mg/m3 17.88 °C 67.22 % 6.83 m/s 145.79 Deg -0.12 µg/m3
2021-11-27 02:00 1.51 µg/m3 4.46 µg/m3 88.1 µg/m3 N/A 4.62 µg/m3 0.19 mg/m3 17.96 °C 64.85 % 7.91 m/s 131.7 Deg -0.11 µg/m3
2021-11-27 01:00 1.6 µg/m3 0.42 µg/m3 94.75 µg/m3 N/A 4.51 µg/m3 0.19 mg/m3 17.67 °C 62.22 % 6.91 m/s 161.92 Deg -0.12 µg/m3
2021-11-27 00:00 1.39 µg/m3 0.38 µg/m3 94.55 µg/m3 N/A 3.84 µg/m3 0.19 mg/m3 17.29 °C 60.27 % 5.69 m/s 177.57 Deg -0.12 µg/m3
2021-11-26 23:00 1.44 µg/m3 0.33 µg/m3 94.33 µg/m3 N/A 3.97 µg/m3 0.19 mg/m3 17.07 °C 59.25 % 6.03 m/s 168.99 Deg -0.12 µg/m3
2021-11-26 22:00 2.04 µg/m3 0.56 µg/m3 94.31 µg/m3 N/A 4.01 µg/m3 0.19 mg/m3 16.98 °C 60.12 % 6.52 m/s 203.09 Deg -0.11 µg/m3
2021-11-26 21:00 1.3 µg/m3 0.67 µg/m3 96.97 µg/m3 N/A 3.39 µg/m3 0.19 mg/m3 16.88 °C 59.83 % 7.34 m/s 148.68 Deg -0.13 µg/m3
2021-11-26 20:00 1.23 µg/m3 0.56 µg/m3 96.6 µg/m3 N/A 3.47 µg/m3 0.19 mg/m3 16.84 °C 58.75 % 7.56 m/s 189.88 Deg -0.12 µg/m3
2021-11-26 19:00 1.23 µg/m3 0.31 µg/m3 96.08 µg/m3 N/A 3.71 µg/m3 0.19 mg/m3 16.83 °C 58.82 % 7.96 m/s 142.61 Deg -0.12 µg/m3
2021-11-26 18:00 2 µg/m3 0.51 µg/m3 96.71 µg/m3 N/A 4.25 µg/m3 0.19 mg/m3 16.75 °C 61.62 % 8.06 m/s 218.21 Deg -0.13 µg/m3
2021-11-26 17:00 2.1 µg/m3 0.49 µg/m3 94.66 µg/m3 N/A 3.18 µg/m3 0.19 mg/m3 16.66 °C 63.64 % 7.98 m/s 177.92 Deg -0.1 µg/m3
2021-11-26 16:00 1.48 µg/m3 0.39 µg/m3 93.65 µg/m3 N/A 3.33 µg/m3 0.19 mg/m3 17.01 °C 60.94 % 8.74 m/s 157.34 Deg -0.07 µg/m3
2021-11-26 15:00 1.33 µg/m3 0.48 µg/m3 90.11 µg/m3 N/A 2.96 µg/m3 0.19 mg/m3 17.3 °C 61.79 % 8.51 m/s 187.8 Deg -0.05 µg/m3
2021-11-26 14:00 1.42 µg/m3 0.31 µg/m3 89.23 µg/m3 N/A 4.07 µg/m3 0.19 mg/m3 17.59 °C 59.67 % 9.63 m/s 230.31 Deg -0.02 µg/m3
2021-11-26 13:00 1.85 µg/m3 0.34 µg/m3 91.41 µg/m3 N/A 4.15 µg/m3 0.19 mg/m3 17.65 °C 66.66 % 9.51 m/s 165 Deg 0.03 µg/m3
2021-11-26 12:00 1.61 µg/m3 0.24 µg/m3 86.25 µg/m3 N/A 3.33 µg/m3 0.18 mg/m3 17.36 °C 75.27 % 7.02 m/s 191.09 Deg 0.05 µg/m3
2021-11-26 11:00 1.23 µg/m3 0.27 µg/m3 84.43 µg/m3 N/A 4.47 µg/m3 0.18 mg/m3 18 °C 72.35 % 7.77 m/s 127.4 Deg -0.01 µg/m3
2021-11-26 10:00 1.19 µg/m3 0.42 µg/m3 86.25 µg/m3 N/A 4.86 µg/m3 0.17 mg/m3 17.85 °C 69.76 % 5.29 m/s 180.6 Deg -0.03 µg/m3
2021-11-26 09:00 1.73 µg/m3 0.68 µg/m3 83.62 µg/m3 N/A 3.85 µg/m3 0.18 mg/m3 17.56 °C 67.48 % 5.53 m/s 170.02 Deg -0.04 µg/m3
2021-11-26 08:00 2.21 µg/m3 0.36 µg/m3 83.11 µg/m3 N/A 3.28 µg/m3 0.18 mg/m3 17.15 °C 65.04 % 5.39 m/s 209.17 Deg -0.07 µg/m3
2021-11-26 07:00 2.2 µg/m3 0.34 µg/m3 82.85 µg/m3 N/A 3.72 µg/m3 0.18 mg/m3 16.76 °C 65.48 % 4.69 m/s 179.68 Deg -0.11 µg/m3
2021-11-26 06:00 1.74 µg/m3 0.27 µg/m3 82.87 µg/m3 N/A 4.11 µg/m3 0.18 mg/m3 16.61 °C 67.61 % 5.18 m/s 203.14 Deg -0.12 µg/m3
2021-11-26 05:00 1.92 µg/m3 0.34 µg/m3 83.95 µg/m3 N/A 4.78 µg/m3 0.14 mg/m3 16.44 °C 71.35 % 4.99 m/s 241 Deg -0.13 µg/m3
2021-11-26 04:00 1.7 µg/m3 0.33 µg/m3 90.12 µg/m3 N/A 3.6 µg/m3 0.17 mg/m3 14.59 °C 80.83 % 5.23 m/s 206.05 Deg -0.12 µg/m3
2021-11-26 03:00 2.21 µg/m3 0.41 µg/m3 89.27 µg/m3 N/A 4.27 µg/m3 0.17 mg/m3 15.6 °C 83.61 % 5.27 m/s 217.74 Deg -0.12 µg/m3
2021-11-26 02:00 0.95 µg/m3 0.43 µg/m3 92.87 µg/m3 N/A 4.73 µg/m3 0.16 mg/m3 16.91 °C 73.69 % 5.04 m/s 225.93 Deg -0.13 µg/m3
2021-11-26 01:00 0.56 µg/m3 0.6 µg/m3 91.89 µg/m3 N/A 4.65 µg/m3 0.16 mg/m3 17.26 °C 73.46 % 6.8 m/s 195.24 Deg -0.13 µg/m3
2021-11-26 00:00 0.83 µg/m3 0.63 µg/m3 90.78 µg/m3 N/A 4.33 µg/m3 0.15 mg/m3 17.23 °C 72.38 % 6.6 m/s 194.73 Deg -0.13 µg/m3
2021-11-25 23:00 0.45 µg/m3 0.54 µg/m3 90.78 µg/m3 N/A 5.67 µg/m3 0.16 mg/m3 17.3 °C 73.52 % 7.04 m/s 187.95 Deg -0.13 µg/m3
2021-11-25 22:00 0.42 µg/m3 0.59 µg/m3 91.41 µg/m3 N/A 4.57 µg/m3 0.15 mg/m3 17.5 °C 74.34 % 6.97 m/s 236.47 Deg -0.13 µg/m3
2021-11-25 21:00 0.45 µg/m3 0.49 µg/m3 91.21 µg/m3 N/A 4.28 µg/m3 0.16 mg/m3 16.64 °C 80.41 % 5.65 m/s 216.19 Deg -0.13 µg/m3
2021-11-25 20:00 0.34 µg/m3 0.41 µg/m3 91.55 µg/m3 N/A 5.27 µg/m3 0.16 mg/m3 16.74 °C 84.96 % 7.55 m/s 206.52 Deg -0.13 µg/m3
2021-11-25 19:00 0.38 µg/m3 0.26 µg/m3 91.7 µg/m3 N/A 4.88 µg/m3 0.16 mg/m3 17.71 °C 83.85 % 5.97 m/s 257.56 Deg -0.13 µg/m3
2021-11-25 18:00 0.47 µg/m3 0.21 µg/m3 91.07 µg/m3 N/A 5.06 µg/m3 0.16 mg/m3 18.45 °C 84.53 % 6.33 m/s 179.64 Deg -0.13 µg/m3
2021-11-25 17:00 0.42 µg/m3 0.22 µg/m3 90.11 µg/m3 N/A 4.61 µg/m3 0.16 mg/m3 18.74 °C 84.33 % 5.62 m/s 126.24 Deg -0.12 µg/m3
2021-11-25 16:00 3.23 µg/m3 0.22 µg/m3 80.48 µg/m3 N/A 5.19 µg/m3 0.17 mg/m3 19.02 °C 85.74 % 4.49 m/s 152.98 Deg 0.37 µg/m3
2021-11-25 15:00 2.58 µg/m3 0.23 µg/m3 83.92 µg/m3 N/A 3.69 µg/m3 0.17 mg/m3 19.16 °C 85.17 % 3.53 m/s 99.88 Deg 0.2 µg/m3
2021-11-25 14:00 1.5 µg/m3 0.2 µg/m3 80.38 µg/m3 N/A 2.68 µg/m3 0.16 mg/m3 18.06 °C 94 % 4.27 m/s 17.47 Deg 0.16 µg/m3
2021-11-25 13:00 1.5 µg/m3 0.2 µg/m3 81.51 µg/m3 N/A 2.96 µg/m3 0.16 mg/m3 17.43 °C 100 % 5.2 m/s 59.41 Deg 0.19 µg/m3
2021-11-25 12:00 1.1 µg/m3 0.16 µg/m3 85.86 µg/m3 4.78 µg/m3 N/A 0.16 mg/m3 16.7 °C 100 % 5.55 m/s 96.12 Deg -0.05 µg/m3
2021-11-25 11:00 1.14 µg/m3 0.19 µg/m3 87.36 µg/m3 7.12 µg/m3 N/A 0.15 mg/m3 16.01 °C 100 % 6.3 m/s 127.15 Deg -0.08 µg/m3
2021-11-25 10:00 0.86 µg/m3 0.18 µg/m3 86.48 µg/m3 5.21 µg/m3 N/A 0.16 mg/m3 15.42 °C 99.95 % 7.39 m/s 136.55 Deg -0.11 µg/m3
2021-11-25 09:00 1.03 µg/m3 0.2 µg/m3 82.82 µg/m3 5.89 µg/m3 3.45 µg/m3 0.16 mg/m3 15.08 °C 98.51 % 5.9 m/s 75.86 Deg -0.1 µg/m3
2021-11-25 08:00 2.25 µg/m3 0.24 µg/m3 80.35 µg/m3 7.92 µg/m3 3.87 µg/m3 0.16 mg/m3 15.91 °C 95.04 % 4.29 m/s 81.2 Deg -0.06 µg/m3
2021-11-25 07:00 1.54 µg/m3 0.28 µg/m3 91.88 µg/m3 6.07 µg/m3 4.15 µg/m3 0.17 mg/m3 16.59 °C 88.95 % 4.33 m/s 197.34 Deg -0.11 µg/m3
2021-11-25 06:00 2.45 µg/m3 0.29 µg/m3 93.16 µg/m3 5.86 µg/m3 4.47 µg/m3 0.16 mg/m3 16.58 °C 83.81 % 4.86 m/s 27.11 Deg -0.1 µg/m3
2021-11-25 05:00 6.8 µg/m3 0.27 µg/m3 85.02 µg/m3 5.86 µg/m3 6 µg/m3 0.13 mg/m3 15.97 °C 84.87 % 4.37 m/s 78.66 Deg -0.08 µg/m3
2021-11-25 04:00 9.53 µg/m3 0.28 µg/m3 79.74 µg/m3 5.67 µg/m3 5.21 µg/m3 0.18 mg/m3 15.71 °C 86.05 % 4.89 m/s 35.95 Deg -0.08 µg/m3
2021-11-25 03:00 5.23 µg/m3 0.31 µg/m3 85.51 µg/m3 4.78 µg/m3 3.73 µg/m3 0.19 mg/m3 15.62 °C 85.9 % 4.62 m/s 118.2 Deg -0.08 µg/m3
2021-11-25 02:00 6.45 µg/m3 0.27 µg/m3 84.92 µg/m3 4.01 µg/m3 4.61 µg/m3 0.2 mg/m3 15.64 °C 82.92 % 4.74 m/s 78.29 Deg -0.06 µg/m3
2021-11-25 01:00 11.78 µg/m3 0.35 µg/m3 77.57 µg/m3 6.82 µg/m3 5.59 µg/m3 0.19 mg/m3 15.63 °C 80.69 % 4.25 m/s 42.2 Deg -0.07 µg/m3
2021-11-25 00:00 10.16 µg/m3 0.31 µg/m3 80.95 µg/m3 8.03 µg/m3 5.37 µg/m3 0.19 mg/m3 15.78 °C 79.97 % 3.81 m/s 60.11 Deg -0.07 µg/m3
2021-11-24 23:00 6.02 µg/m3 0.47 µg/m3 87.07 µg/m3 9.82 µg/m3 6.08 µg/m3 0.2 mg/m3 16.08 °C 79.87 % 3.35 m/s 67.57 Deg -0.08 µg/m3
2021-11-24 22:00 12.97 µg/m3 0.49 µg/m3 76.78 µg/m3 10.01 µg/m3 5.25 µg/m3 0.22 mg/m3 16.26 °C 79.21 % 2.67 m/s 98.08 Deg -0.05 µg/m3
2021-11-24 21:00 15.11 µg/m3 0.48 µg/m3 73.96 µg/m3 5.22 µg/m3 3.51 µg/m3 0.22 mg/m3 16.45 °C 79.18 % 3.17 m/s 57.09 Deg -0.05 µg/m3
2021-11-24 20:00 5.24 µg/m3 0.44 µg/m3 91.88 µg/m3 5.48 µg/m3 3.09 µg/m3 0.19 mg/m3 16.79 °C 75.82 % 1.85 m/s 92.54 Deg -0.09 µg/m3
2021-11-24 19:00 4.42 µg/m3 0.39 µg/m3 96.07 µg/m3 9.5 µg/m3 6.44 µg/m3 0.18 mg/m3 16.94 °C 74.02 % 1.83 m/s 107.08 Deg -0.1 µg/m3
2021-11-24 18:00 7.82 µg/m3 0.39 µg/m3 88.98 µg/m3 6.43 µg/m3 4.71 µg/m3 0.2 mg/m3 17.07 °C 73.71 % 1.72 m/s 66.96 Deg 1.06 µg/m3
2021-11-24 17:00 2.18 µg/m3 0.28 µg/m3 88.72 µg/m3 4.52 µg/m3 3.72 µg/m3 0.17 mg/m3 17.55 °C 73.38 % 1.29 m/s 183.78 Deg -0.08 µg/m3
2021-11-24 16:00 1.63 µg/m3 0.33 µg/m3 92.85 µg/m3 3.63 µg/m3 2.79 µg/m3 0.17 mg/m3 17.97 °C 73.55 % 1.9 m/s 153.77 Deg 0.03 µg/m3
2021-11-24 15:00 1.46 µg/m3 0.38 µg/m3 94.66 µg/m3 5.16 µg/m3 3.19 µg/m3 0.16 mg/m3 18.23 °C 72.73 % 1.78 m/s 208.54 Deg 0.05 µg/m3
2021-11-24 14:00 1.47 µg/m3 0.38 µg/m3 94.15 µg/m3 5.22 µg/m3 2.79 µg/m3 0.16 mg/m3 18.38 °C 72.24 % 1.79 m/s 202.85 Deg 0.06 µg/m3
2021-11-24 13:00 1.34 µg/m3 0.35 µg/m3 91.79 µg/m3 5.6 µg/m3 3.01 µg/m3 0.17 mg/m3 18.33 °C 72.93 % 2 m/s 258.85 Deg 0.08 µg/m3
2021-11-24 12:00 1.52 µg/m3 0.32 µg/m3 91.15 µg/m3 5.41 µg/m3 3.57 µg/m3 0.17 mg/m3 18.16 °C 74.3 % 2.03 m/s 288.34 Deg 0.08 µg/m3
2021-11-24 11:00 1.63 µg/m3 0.32 µg/m3 90.27 µg/m3 6.75 µg/m3 2.97 µg/m3 0.17 mg/m3 18.32 °C 73.23 % 1.83 m/s 201.61 Deg 0.1 µg/m3
2021-11-24 10:00 1.88 µg/m3 0.34 µg/m3 89.1 µg/m3 4.58 µg/m3 2.23 µg/m3 0.17 mg/m3 18.31 °C 72.57 % 1.23 m/s 200.51 Deg 0.09 µg/m3
2021-11-24 09:00 2.36 µg/m3 0.29 µg/m3 85.18 µg/m3 7.01 µg/m3 3.26 µg/m3 0.17 mg/m3 17.88 °C 74.19 % 1.33 m/s 206.89 Deg 0.11 µg/m3
2021-11-24 08:00 1.29 µg/m3 0.34 µg/m3 93.21 µg/m3 5.86 µg/m3 4.37 µg/m3 0.18 mg/m3 17.15 °C 76.34 % 0.96 m/s 214.13 Deg -0.08 µg/m3
2021-11-24 07:00 1.07 µg/m3 0.3 µg/m3 95.28 µg/m3 6.31 µg/m3 4.35 µg/m3 0.18 mg/m3 16.85 °C 76.56 % 0.95 m/s 207.78 Deg -0.12 µg/m3
2021-11-24 06:00 1.27 µg/m3 0.3 µg/m3 94.93 µg/m3 6.5 µg/m3 4.45 µg/m3 0.17 mg/m3 16.81 °C 76.96 % 1.49 m/s 255.55 Deg -0.12 µg/m3
2021-11-24 05:00 1.66 µg/m3 0.35 µg/m3 93.56 µg/m3 6.05 µg/m3 4.26 µg/m3 0.16 mg/m3 16.7 °C 77.21 % 1.73 m/s 193.57 Deg -0.1 µg/m3
2021-11-24 04:00 1.54 µg/m3 0.35 µg/m3 93.68 µg/m3 6.69 µg/m3 4.48 µg/m3 0.2 mg/m3 16.68 °C 78.09 % 2.03 m/s 262.49 Deg -0.11 µg/m3
2021-11-24 03:00 1.91 µg/m3 0.37 µg/m3 92.51 µg/m3 6.11 µg/m3 4 µg/m3 0.2 mg/m3 16.72 °C 77.96 % 2.34 m/s 188.95 Deg -0.1 µg/m3
2021-11-24 02:00 2 µg/m3 0.29 µg/m3 90.24 µg/m3 5.35 µg/m3 4.72 µg/m3 0.2 mg/m3 16.72 °C 78.72 % 2.4 m/s 186.2 Deg -0.08 µg/m3
2021-11-24 01:00 1.52 µg/m3 0.28 µg/m3 93.16 µg/m3 5.16 µg/m3 4.32 µg/m3 0.19 mg/m3 16.83 °C 78.37 % 2.41 m/s 254.43 Deg -0.08 µg/m3
2021-11-24 00:00 1.47 µg/m3 0.24 µg/m3 93.34 µg/m3 4.97 µg/m3 4.6 µg/m3 0.19 mg/m3 16.79 °C 77.75 % 2.46 m/s 239.83 Deg -0.08 µg/m3
2021-11-23 23:00 1.5 µg/m3 0.27 µg/m3 93.42 µg/m3 4.81 µg/m3 4.66 µg/m3 0.19 mg/m3 16.97 °C 76.54 % 2.59 m/s 243.91 Deg -0.07 µg/m3
2021-11-23 22:00 1.55 µg/m3 0.29 µg/m3 94.11 µg/m3 5.54 µg/m3 3.73 µg/m3 0.19 mg/m3 17.03 °C 75.27 % 2.67 m/s 234.82 Deg -0.07 µg/m3
2021-11-23 21:00 1.64 µg/m3 0.27 µg/m3 95.47 µg/m3 5.46 µg/m3 3.6 µg/m3 0.19 mg/m3 17.11 °C 73.78 % 2.65 m/s 212.38 Deg -0.07 µg/m3
2021-11-23 20:00 1.44 µg/m3 0.3 µg/m3 95.61 µg/m3 5.25 µg/m3 3.06 µg/m3 0.18 mg/m3 17.27 °C 73.85 % 2.82 m/s 205.73 Deg -0.07 µg/m3
2021-11-23 19:00 1.59 µg/m3 0.35 µg/m3 97.12 µg/m3 6.47 µg/m3 3.53 µg/m3 0.19 mg/m3 17.43 °C 73.94 % 3.21 m/s 259.82 Deg -0.07 µg/m3
2021-11-23 18:00 2.41 µg/m3 0.48 µg/m3 97.04 µg/m3 7.84 µg/m3 4.32 µg/m3 0.18 mg/m3 17.59 °C 73.52 % 3.07 m/s 235.85 Deg -0.05 µg/m3
2021-11-23 17:00 3.17 µg/m3 0.63 µg/m3 94.37 µg/m3 8.16 µg/m3 4.23 µg/m3 0.18 mg/m3 17.88 °C 76.94 % 3.08 m/s 228.05 Deg 0.01 µg/m3
2021-11-23 16:00 2.84 µg/m3 0.64 µg/m3 96.68 µg/m3 7.77 µg/m3 5.43 µg/m3 0.18 mg/m3 18.39 °C 78.05 % 3.74 m/s 196.45 Deg 0.18 µg/m3
2021-11-23 15:00 3.39 µg/m3 0.74 µg/m3 95.21 µg/m3 8.36 µg/m3 6.32 µg/m3 0.18 mg/m3 18.77 °C 79.33 % 4.18 m/s 224.43 Deg 0.38 µg/m3
2021-11-23 14:00 3.64 µg/m3 0.56 µg/m3 89.34 µg/m3 10.71 µg/m3 6.62 µg/m3 0.19 mg/m3 19.38 °C 79.92 % 3.79 m/s 234.6 Deg 0.55 µg/m3
2021-11-23 13:00 2.84 µg/m3 0.41 µg/m3 78.88 µg/m3 11.27 µg/m3 5.75 µg/m3 0.2 mg/m3 19.56 °C 78.02 % 3.89 m/s 224.39 Deg 0.41 µg/m3
2021-11-23 12:00 2.2 µg/m3 0.31 µg/m3 75.99 µg/m3 10.79 µg/m3 5.76 µg/m3 0.19 mg/m3 19.43 °C 78.81 % 4.47 m/s 201.34 Deg 0.34 µg/m3
2021-11-23 11:00 1.55 µg/m3 0.45 µg/m3 75.19 µg/m3 11.89 µg/m3 N/A 0.19 mg/m3 19.38 °C 79.11 % 4.72 m/s 157.74 Deg 0.18 µg/m3
2021-11-23 10:00 0.44 µg/m3 41.28 µg/m3 77.65 µg/m3 N/A N/A 0.19 mg/m3 19.52 °C 77.26 % 4.44 m/s 171.83 Deg 1.03 µg/m3
2021-11-23 09:00 1.48 µg/m3 3.13 µg/m3 79.24 µg/m3 N/A N/A 0.18 mg/m3 19.27 °C 77.34 % 4.43 m/s 103.51 Deg 29.89 µg/m3
2021-11-23 08:00 1.88 µg/m3 1.15 µg/m3 80.24 µg/m3 7.01 µg/m3 N/A 0.18 mg/m3 18.92 °C 77.58 % 3.61 m/s 140.61 Deg 0.37 µg/m3
2021-11-23 07:00 4.1 µg/m3 0.49 µg/m3 82.46 µg/m3 5.4 µg/m3 N/A 0.17 mg/m3 18.47 °C 75.68 % 2.65 m/s 86.25 Deg 0.34 µg/m3
2021-11-23 06:00 1.84 µg/m3 0.21 µg/m3 85.43 µg/m3 3.93 µg/m3 N/A 0.16 mg/m3 18.24 °C 73.19 % 2.27 m/s 140.02 Deg 0.35 µg/m3
2021-11-23 05:00 1.39 µg/m3 0.15 µg/m3 88.94 µg/m3 4.5 µg/m3 3.67 µg/m3 0.14 mg/m3 18.36 °C 70.42 % 2.27 m/s 127.83 Deg 0.34 µg/m3
2021-11-23 04:00 1.41 µg/m3 0.71 µg/m3 90.94 µg/m3 4.6 µg/m3 4.1 µg/m3 0.17 mg/m3 18.49 °C 68.65 % 2.81 m/s 208.72 Deg 0.34 µg/m3

It is to be noted that the data is provisional and subject to quality assurance procedures. For validated data kindly refer your request to contact.air@era.org.mt